Covington, KY

6:08 AM EDT on April 26, 2017 (GMT -0400)
Cincinnati-Northern KY International

Weather History for KCVG - March, 2014

Change the Weather History Date:

Sunday, March 16, 2014

  Actual Average Record
Temperature  
Mean Temperature 35 °F 44 °F  
Max Temperature 43 °F 53 °F 83 °F (1945)
Min Temperature 27 °F 34 °F 9 °F (1970)
Degree Days  
Heating Degree Days 30 21  
Month to date heating degree days 428 386  
Since 1 July heating degree days 4672 4213  
Cooling Degree Days 0 0  
Month to date cooling degree days 0 0  
Year to date cooling degree days 0 0  
Moisture  
Dew Point 18 °F    
Average Humidity 54    
Maximum Humidity 69    
Minimum Humidity 38    
Precipitation  
Precipitation 0.00 in 0.13 in 2.22 in (1963)
Month to date precipitation 0.94 1.87  
Year to date precipitation 6.48 7.68  
Snow  
Snow 0.00 in 0.10 in 4.30 in (1956)
Month to date snowfall 2.5 1.9  
Since 1 July snowfall 46.1 20.5  
Snow Depth 0.00 in    
Sea Level Pressure  
Sea Level Pressure 30.06 in    
Wind  
Wind Speed 20 mph (NE)    
Max Wind Speed 29 mph    
Max Gust Speed 35 mph    
Visibility 10 miles    
Events      
T = Trace of Precipitation, MM = Missing Value Source: NWS Daily Summary

Daily Weather History Graph

Daily Weather History Graph

Search for Another Location

Airport or City:

Trip Planner

Search our weather history database for the weather conditions in past years. The results will help you decide how hot, cold, wet, or windy it might be!

Date:

Astronomy

Mar. 16, 2014 Rise Set
Actual Time 7:48 AM EDT 7:46 PM EDT
Civil Twilight 7:21 AM EDT 8:13 PM EDT
Nautical Twilight 6:50 AM EDT 8:44 PM EDT
Astronomical Twilight 6:19 AM EDT 9:15 PM EDT
Moon 8:02 PM EDT (3/16) 7:31 AM EDT (3/16)
Length of Visible Light 12h 51m
Length of Day
11h 58m
Full, 100% of the Moon is Illuminated
Mar 16
Full
Mar 16
Full
Mar 23
Last Quarter
Mar 30
New
Apr 7
First Quarter

Hourly Weather History & Observations

Time (EDT) Temp. Windchill Dew Point Humidity Pressure Visibility Wind Dir Wind Speed Gust Speed Precip Events Conditions
12:52 AM 43.0 °F 36.0 °F 28.9 °F 58% 30.08 in 10.0 mi NE 13.8 mph 20.7 mph N/A   Clear
1:52 AM 41.0 °F 33.1 °F 28.9 °F 62% 30.08 in 10.0 mi NE 15.0 mph - N/A   Clear
2:52 AM 39.0 °F 30.6 °F 28.9 °F 67% 30.09 in 10.0 mi NE 15.0 mph - N/A   Clear
3:52 AM 37.0 °F 27.7 °F 26.1 °F 65% 30.09 in 10.0 mi NE 16.1 mph - N/A   Clear
4:52 AM 36.0 °F 25.6 °F 25.0 °F 64% 30.10 in 10.0 mi ENE 18.4 mph - N/A   Partly Cloudy
5:52 AM 35.1 °F 24.8 °F 25.0 °F 67% 30.09 in 10.0 mi NE 17.3 mph 25.3 mph N/A   Partly Cloudy
6:52 AM 33.1 °F 21.5 °F 24.1 °F 70% 30.08 in 10.0 mi ENE 19.6 mph 27.6 mph N/A   Overcast
7:52 AM 32.0 °F 19.5 °F 21.9 °F 66% 30.09 in 10.0 mi NE 21.9 mph 28.8 mph N/A   Overcast
8:52 AM 32.0 °F 19.5 °F 21.0 °F 64% 30.09 in 10.0 mi NE 21.9 mph 29.9 mph N/A   Overcast
9:52 AM 30.9 °F 17.8 °F 21.0 °F 67% 30.11 in 10.0 mi NE 23.0 mph 26.5 mph N/A   Overcast
10:52 AM 30.9 °F 17.5 °F 21.0 °F 67% 30.12 in 10.0 mi NE 24.2 mph 33.4 mph N/A   Overcast
11:52 AM 32.0 °F 19.8 °F 19.0 °F 59% 30.11 in 10.0 mi NE 20.7 mph 28.8 mph N/A   Overcast
12:52 PM 32.0 °F 21.6 °F 17.1 °F 54% 30.10 in 10.0 mi NE 15.0 mph 27.6 mph N/A   Overcast
1:52 PM 32.0 °F 18.9 °F 14.0 °F 48% 30.09 in 10.0 mi NE 24.2 mph 28.8 mph N/A   Overcast
2:52 PM 33.1 °F 20.9 °F 14.0 °F 46% 30.05 in 10.0 mi NE 21.9 mph 25.3 mph N/A   Overcast
3:52 PM 34.0 °F 21.5 °F 12.9 °F 42% 30.02 in 10.0 mi NE 24.2 mph 29.9 mph N/A   Overcast
4:52 PM 34.0 °F 22.4 °F 10.9 °F 38% 30.01 in 10.0 mi NE 20.7 mph 29.9 mph N/A   Overcast
5:52 PM 33.1 °F 21.2 °F 10.9 °F 40% 29.97 in 10.0 mi ENE 20.7 mph 31.1 mph N/A   Overcast
6:52 PM 30.9 °F 18.7 °F 9.0 °F 40% 29.99 in 10.0 mi ENE 19.6 mph 27.6 mph N/A   Overcast
7:52 PM 30.9 °F 18.1 °F 8.1 °F 38% 30.00 in 10.0 mi NNE 21.9 mph 29.9 mph N/A   Overcast
8:52 PM 28.9 °F 16.1 °F 8.1 °F 41% 29.99 in 10.0 mi NE 19.6 mph - N/A   Overcast
9:52 PM 28.9 °F 16.1 °F 8.1 °F 41% 30.00 in 10.0 mi NE 19.6 mph - N/A   Overcast
10:52 PM 28.9 °F 16.1 °F 9.0 °F 43% 30.00 in 10.0 mi NE 19.6 mph 25.3 mph N/A   Overcast
11:52 PM 28.0 °F 15.7 °F 9.0 °F 45% 30.00 in 10.0 mi NE 17.3 mph 23.0 mph N/A   Overcast